TimeMST,TemperatureF,Dew PointF,Humidity,Sea Level PressureIn,VisibilityMPH,Wind Direction,Wind SpeedMPH,Gust SpeedMPH,PrecipitationIn,Events,Conditions,WindDirDegrees,DateUTC
12:15 AM,17.6,15.8,93,30.23,10.0,WNW,10.4,-,N/A,,Overcast,290,2013-01-03 07:15:00
12:35 AM,17.6,15.8,93,30.22,10.0,WNW,12.7,-,N/A,,Overcast,290,2013-01-03 07:35:00
12:55 AM,17.6,15.8,93,30.23,10.0,North,-9999.0,-,N/A,,Overcast,0,2013-01-03 07:55:00
1:15 AM,17.6,15.8,93,30.23,10.0,North,-9999.0,-,N/A,,Overcast,0,2013-01-03 08:15:00
1:35 AM,17.6,15.8,93,30.23,10.0,WNW,11.5,-,N/A,,Overcast,290,2013-01-03 08:35:00
1:55 AM,17.6,15.8,93,30.23,10.0,WNW,13.8,-,N/A,,Overcast,290,2013-01-03 08:55:00
2:15 AM,17.6,15.8,93,30.25,10.0,WNW,11.5,-,N/A,,Overcast,290,2013-01-03 09:15:00
2:35 AM,17.6,15.8,93,30.24,10.0,West,8.1,-,N/A,,Overcast,280,2013-01-03 09:35:00
2:55 AM,17.6,15.8,93,30.23,10.0,West,9.2,-,N/A,,Overcast,260,2013-01-03 09:55:00
3:15 AM,15.8,14.0,93,30.23,10.0,WSW,9.2,-,N/A,,Mostly Cloudy,240,2013-01-03 10:15:00
3:35 AM,14.0,12.2,93,30.22,10.0,WSW,9.2,-,N/A,,Clear,240,2013-01-03 10:35:00
3:55 AM,14.0,10.4,86,30.20,10.0,WSW,11.5,-,N/A,,Clear,240,2013-01-03 10:55:00
4:15 AM,10.4,8.6,92,30.20,10.0,WSW,12.7,-,N/A,,Clear,240,2013-01-03 11:15:00
4:35 AM,12.2,8.6,85,30.19,10.0,WSW,12.7,-,N/A,,Clear,250,2013-01-03 11:35:00
4:55 AM,10.4,8.6,92,30.20,10.0,WSW,9.2,-,N/A,,Clear,250,2013-01-03 11:55:00
5:15 AM,10.4,8.6,92,30.18,10.0,WSW,12.7,-,N/A,,Clear,240,2013-01-03 12:15:00
5:35 AM,12.2,8.6,85,30.18,10.0,SW,10.4,-,N/A,,Clear,230,2013-01-03 12:35:00
5:55 AM,14.0,8.6,79,30.17,10.0,WSW,8.1,-,N/A,,Clear,240,2013-01-03 12:55:00
6:15 AM,14.0,8.6,79,30.17,10.0,WSW,13.8,-,N/A,,Clear,240,2013-01-03 13:15:00
6:35 AM,14.0,8.6,79,30.15,10.0,WSW,16.1,-,N/A,,Clear,250,2013-01-03 13:35:00
6:55 AM,14.0,8.6,79,30.15,10.0,WSW,15.0,-,N/A,,Clear,250,2013-01-03 13:55:00
7:15 AM,14.0,8.6,79,30.15,10.0,WSW,16.1,-,N/A,,Clear,250,2013-01-03 14:15:00
7:35 AM,14.0,8.6,79,30.15,10.0,WSW,18.4,-,N/A,,Clear,250,2013-01-03 14:35:00
7:55 AM,14.0,8.6,79,30.14,10.0,WSW,17.3,-,N/A,,Clear,250,2013-01-03 14:55:00
8:15 AM,14.0,8.6,79,30.14,10.0,WSW,19.6,-,N/A,,Clear,240,2013-01-03 15:15:00
8:35 AM,15.8,8.6,73,30.14,10.0,WSW,18.4,-,N/A,,Clear,240,2013-01-03 15:35:00
8:55 AM,15.8,8.6,73,30.14,10.0,WSW,18.4,-,N/A,,Clear,240,2013-01-03 15:55:00
9:35 AM,19.4,8.6,63,30.15,10.0,WSW,15.0,23.0,N/A,,Clear,240,2013-01-03 16:35:00
9:55 AM,19.4,8.6,63,30.13,10.0,SW,15.0,-,N/A,,Clear,230,2013-01-03 16:55:00
10:15 AM,19.4,8.6,63,30.12,10.0,SW,18.4,-,N/A,,Clear,230,2013-01-03 17:15:00
10:35 AM,23.0,8.6,54,30.12,10.0,WSW,17.3,-,N/A,,Clear,240,2013-01-03 17:35:00
10:55 AM,23.0,8.6,54,30.11,10.0,WSW,18.4,24.2,N/A,,Clear,250,2013-01-03 17:55:00
11:15 AM,24.8,8.6,50,30.10,10.0,WSW,15.0,23.0,N/A,,Clear,240,2013-01-03 18:15:00
11:35 AM,24.8,8.6,50,30.09,10.0,WSW,15.0,19.6,N/A,,Clear,240,2013-01-03 18:35:00
11:55 AM,24.8,10.4,54,30.08,10.0,SW,16.1,21.9,N/A,,Clear,230,2013-01-03 18:55:00
12:15 PM,26.6,10.4,51,30.08,10.0,WSW,16.1,21.9,N/A,,Clear,240,2013-01-03 19:15:00
12:35 PM,26.6,10.4,51,30.06,10.0,WSW,21.9,27.6,N/A,,Clear,250,2013-01-03 19:35:00
12:55 PM,26.6,10.4,51,30.05,10.0,WSW,19.6,27.6,N/A,,Clear,250,2013-01-03 19:55:00
1:15 PM,26.6,10.4,51,30.05,10.0,WSW,17.3,24.2,N/A,,Clear,240,2013-01-03 20:15:00
1:35 PM,26.6,10.4,51,30.04,10.0,WSW,15.0,21.9,N/A,,Clear,240,2013-01-03 20:35:00
1:55 PM,28.4,10.4,47,30.04,10.0,WSW,19.6,24.2,N/A,,Clear,240,2013-01-03 20:55:00
2:15 PM,26.6,10.4,51,30.04,10.0,WSW,18.4,23.0,N/A,,Clear,250,2013-01-03 21:15:00
2:55 PM,26.6,10.4,51,30.04,10.0,WSW,19.6,-,N/A,,Clear,250,2013-01-03 21:55:00
3:15 PM,26.6,12.2,55,30.04,10.0,WSW,20.7,-,N/A,,Clear,240,2013-01-03 22:15:00
3:35 PM,26.6,12.2,55,30.05,10.0,WSW,17.3,-,N/A,,Clear,240,2013-01-03 22:35:00
3:55 PM,24.8,10.4,54,30.05,10.0,WSW,17.3,20.7,N/A,,Clear,240,2013-01-03 22:55:00
4:15 PM,24.8,10.4,54,30.04,10.0,WSW,17.3,-,N/A,,Clear,240,2013-01-03 23:15:00
4:35 PM,24.8,10.4,54,30.05,10.0,WSW,12.7,-,N/A,,Clear,240,2013-01-03 23:35:00
4:55 PM,24.8,10.4,54,30.04,10.0,WSW,17.3,20.7,N/A,,Clear,240,2013-01-03 23:55:00
5:15 PM,24.8,10.4,54,30.04,10.0,WSW,16.1,21.9,N/A,,Clear,250,2013-01-04 00:15:00
5:35 PM,24.8,10.4,54,30.04,10.0,WSW,19.6,-,N/A,,Clear,250,2013-01-04 00:35:00
5:55 PM,24.8,10.4,54,30.05,10.0,West,17.3,-,N/A,,Clear,260,2013-01-04 00:55:00
6:15 PM,23.0,10.4,59,30.05,10.0,WSW,15.0,-,N/A,,Clear,250,2013-01-04 01:15:00
6:35 PM,23.0,10.4,59,30.05,10.0,WSW,13.8,-,N/A,,Clear,250,2013-01-04 01:35:00
6:55 PM,21.2,10.4,63,30.05,10.0,WSW,17.3,-,N/A,,Clear,250,2013-01-04 01:55:00
7:15 PM,21.2,8.6,58,30.05,10.0,WSW,17.3,-,N/A,,Clear,250,2013-01-04 02:15:00
7:35 PM,23.0,10.4,59,30.05,10.0,WSW,18.4,-,N/A,,Clear,250,2013-01-04 02:35:00
7:55 PM,21.2,8.6,58,30.05,10.0,WSW,17.3,-,N/A,,Clear,250,2013-01-04 02:55:00
8:15 PM,21.2,8.6,58,30.05,10.0,West,15.0,23.0,N/A,,Clear,260,2013-01-04 03:15:00
8:35 PM,19.4,8.6,63,30.05,10.0,West,13.8,-,N/A,,Clear,260,2013-01-04 03:35:00
8:55 PM,21.2,8.6,58,30.05,10.0,WSW,13.8,-,N/A,,Clear,250,2013-01-04 03:55:00
9:15 PM,19.4,10.4,68,30.06,10.0,West,12.7,-,N/A,,Clear,260,2013-01-04 04:15:00
9:35 PM,19.4,10.4,68,30.06,10.0,WSW,13.8,-,N/A,,Clear,250,2013-01-04 04:35:00
9:55 PM,19.4,8.6,63,30.06,10.0,WSW,9.2,-,N/A,,Clear,250,2013-01-04 04:55:00
10:15 PM,19.4,8.6,63,30.06,10.0,WSW,12.7,-,N/A,,Clear,250,2013-01-04 05:15:00
10:35 PM,19.4,8.6,63,30.06,10.0,West,11.5,-,N/A,,Clear,260,2013-01-04 05:35:00
10:55 PM,19.4,8.6,63,30.06,10.0,WSW,10.4,-,N/A,,Clear,250,2013-01-04 05:55:00
11:15 PM,19.4,8.6,63,30.07,10.0,WSW,10.4,-,N/A,,Clear,240,2013-01-04 06:15:00
11:35 PM,17.6,8.6,68,30.06,10.0,WSW,12.7,-,N/A,,Clear,250,2013-01-04 06:35:00
11:55 PM,17.6,8.6,68,30.06,10.0,WSW,11.5,-,N/A,,Clear,250,2013-01-04 06:55:00